GFSSW_500_rhum_063.txt.gz
RH
35 29 23 19 12 9 6 5 4 4 4 4 4 3 4 3 5 8 8 13 32 42 35 21 16 14 13 14 17 20 24 28 39 61 56 34 31 8 5 6 13 27 31 34 42
34 36 34 25 13 8 5 5 5 5 4 4 4 4 4 4 6 12 6 24 45 58 36 23 18 18 17 16 18 21 27 34 50 55 52 44 36 10 6 10 14 28 40 39 26
37 33 36 29 13 8 6 6 5 4 4 5 4 4 5 7 11 13 24 27 75 76 40 28 22 20 18 18 21 23 28 45 52 54 50 47 42 14 7 10 15 27 29 31 28
37 37 37 22 11 8 7 7 6 5 5 6 5 7 9 12 19 15 25 35 67 96 51 35 27 22 22 23 23 26 32 46 60 58 50 45 43 24 8 10 8 17 18 30 29
45 40 30 15 11 9 9 8 7 6 6 10 10 11 16 22 24 32 27 37 55 89 85 43 33 27 26 24 25 30 34 50 64 61 43 42 43 36 11 8 9 18 19 32 27
43 33 19 14 12 10 10 9 8 8 9 16 19 17 14 21 29 37 38 38 39 91 92 47 40 31 28 26 27 30 35 52 65 61 41 39 46 39 19 10 10 18 22 32 31
37 21 17 15 13 13 12 10 9 10 14 19 18 15 17 19 23 40 49 39 36 98 90 48 46 36 32 31 31 33 36 52 64 67 47 41 46 43 27 14 11 18 23 28 29
26 20 18 17 16 14 14 13 15 15 16 15 11 10 10 18 33 54 59 51 59 92 96 64 44 43 37 35 35 36 38 48 65 77 65 50 52 49 34 17 12 14 19 28 29
23 21 20 22 20 18 19 20 19 22 22 15 14 6 6 15 54 74 67 65 86 91 98 77 51 50 43 39 39 38 41 51 73 79 78 64 62 56 38 22 14 15 15 29 31
22 23 25 27 27 23 21 20 21 22 24 14 13 4 4 10 64 84 70 70 78 90 97 93 76 61 51 46 43 44 51 58 75 97 72 73 77 73 47 32 17 15 15 25 21
26 26 31 31 29 26 22 20 22 22 22 13 10 5 3 10 41 92 75 72 67 88 93 98 88 74 59 60 67 62 100 100 86 100 71 75 81 74 55 43 27 16 15 19 18
33 37 38 35 35 31 27 20 19 24 26 16 8 4 3 4 15 90 92 67 68 89 99 96 82 89 88 93 95 95 76 78 89 100 73 82 71 73 58 43 48 27 18 16 9
37 33 36 42 39 35 25 17 21 30 30 19 9 6 4 5 38 78 100 88 82 90 95 97 99 99 95 96 95 98 88 86 93 100 72 82 68 60 68 48 49 23 16 19 10
48 50 52 49 44 37 28 22 31 37 33 25 13 8 5 5 19 31 96 97 97 99 98 96 98 96 96 93 96 96 98 98 100 91 80 99 68 69 66 58 47 27 13 17 12
56 61 58 54 48 42 32 26 36 42 34 27 19 11 7 4 5 14 94 100 99 99 96 95 98 96 96 99 98 91 97 98 100 85 84 90 69 69 68 85 58 42 20 14 11
72 69 56 37 32 32 27 28 35 40 34 31 23 15 10 5 5 5 14 97 94 96 97 100 87 91 97 96 94 99 96 100 100 86 69 77 84 76 98 75 75 49 28 16 13
72 68 60 38 26 25 25 28 34 41 37 32 23 15 10 6 4 5 18 37 98 97 98 100 96 96 99 96 97 97 100 100 100 88 55 77 96 78 97 66 60 45 26 16 16
76 64 57 44 34 28 27 30 35 42 38 36 25 14 9 5 4 4 10 37 66 98 98 98 97 98 97 97 98 97 97 97 93 90 71 73 80 95 97 83 71 55 37 22 20
85 73 53 46 39 35 32 34 40 44 44 43 27 18 9 6 3 4 7 20 51 87 98 98 98 97 97 98 97 96 85 99 96 100 88 100 82 82 77 92 84 62 58 35 21
36 77 72 53 44 41 39 42 41 45 48 44 30 24 11 7 4 3 8 4 18 57 95 98 98 99 97 96 93 96 100 97 99 92 100 100 99 100 83 90 99 74 66 34 20
6 15 49 64 62 51 48 52 57 59 52 41 32 23 15 10 6 3 18 12 12 36 71 98 97 99 97 92 100 99 95 95 100 100 100 100 100 96 87 97 99 96 73 61 22
7 6 9 18 38 59 66 56 50 42 40 30 26 20 12 9 7 4 2 3 5 22 46 83 96 94 100 99 98 100 99 99 100 100 97 99 99 97 84 94 94 87 80 59 34
10 7 6 8 13 22 31 32 26 21 15 14 13 11 8 6 5 5 3 3 4 6 20 38 64 98 100 100 98 98 100 99 100 99 98 98 93 98 96 87 95 89 88 67 38
15 11 8 7 6 7 8 8 7 7 7 7 7 6 4 3 3 3 3 3 16 97 42 12 40 93 98 100 100 97 99 100 99 100 100 97 99 98 99 98 93 97 94 62 61
26 13 10 9 6 6 6 5 6 6 6 7 7 6 6 4 3 2 2 2 6 100 100 84 38 82 98 91 92 100 98 98 98 99 99 99 98 98 98 89 99 94 97 98 99
31 16 17 13 9 7 7 7 8 9 9 9 8 9 7 5 4 3 2 2 5 51 100 100 100 100 89 98 100 94 98 84 78 99 100 100 100 100 94 86 91 94 94 98 96
56 27 21 20 13 11 8 12 12 12 12 13 18 12 9 38 8 4 3 2 3 5 100 100 100 100 100 96 95 96 96 98 94 87 97 100 100 86 83 69 56 66 88 95 97

GFSSW_500_rhum_069.txt.gz
RH
54 48 49 46 53 49 41 37 41 39 39 29 25 24 15 9 5 4 4 4 4 3 2 2 2 3 2 4 15 37 22 18 17 13 31 67 90 92 80 54 40 34 12 6 8
73 73 72 56 66 61 40 42 43 41 45 43 36 31 22 9 6 5 4 4 3 3 2 2 3 4 4 6 23 32 31 25 15 14 34 81 99 94 65 41 37 27 10 6 10
71 68 79 70 73 59 55 48 49 51 46 45 42 44 37 8 6 6 5 4 3 3 3 4 4 5 4 9 22 36 25 23 14 15 49 80 97 97 70 44 37 30 12 8 7
81 58 62 59 58 51 49 49 49 56 52 48 40 30 40 30 17 8 6 4 4 3 3 5 6 6 11 12 26 44 51 26 15 20 32 58 75 92 81 58 44 33 19 10 9
87 67 66 66 53 45 44 48 51 55 54 42 31 18 11 8 8 8 4 4 4 3 4 7 10 17 17 18 36 38 55 27 15 21 36 39 39 62 69 67 49 37 26 11 10
80 78 74 66 57 54 48 53 54 47 42 32 21 14 11 10 9 9 6 4 5 4 5 7 10 16 25 25 28 61 69 30 16 20 32 48 33 60 67 67 53 43 31 14 10
69 66 61 59 57 55 58 57 53 44 29 19 17 14 12 10 10 8 6 6 5 5 6 9 10 20 26 25 48 52 73 46 18 18 24 48 37 49 70 67 54 44 30 20 12
72 66 63 62 64 60 65 60 46 32 23 19 17 14 14 12 11 10 7 6 6 5 7 9 10 27 47 52 66 65 79 61 26 19 22 36 32 56 74 71 55 42 28 24 13
74 70 71 71 72 70 70 59 39 27 22 21 19 16 14 14 12 11 9 9 8 7 7 6 13 39 61 76 90 90 91 79 26 23 25 31 36 65 92 66 53 38 32 28 20
81 82 84 78 74 66 54 44 31 24 25 24 21 20 18 15 13 13 10 10 10 10 6 8 28 56 73 86 71 98 98 69 28 29 48 81 67 71 94 88 58 37 34 34 23
88 87 85 76 66 55 45 34 32 29 30 27 23 21 18 17 16 15 10 12 12 10 5 7 42 64 68 100 100 100 93 83 35 33 57 69 74 78 95 100 81 55 48 41 29
86 87 83 76 66 58 50 42 36 38 34 29 26 22 23 18 15 12 12 14 15 8 6 8 46 78 89 97 92 94 97 62 34 45 97 91 88 96 99 94 88 52 36 32 37
82 82 80 74 73 66 58 48 40 32 31 37 28 27 24 22 19 16 16 17 17 7 6 12 78 88 80 88 97 100 85 81 37 89 89 82 94 90 75 94 89 58 46 31 35
51 38 40 43 50 56 52 55 47 41 35 33 30 30 28 24 19 20 23 20 15 9 7 22 61 82 68 90 95 90 99 94 68 92 94 99 78 92 92 94 99 91 63 42 40
8 6 6 17 26 41 36 48 41 42 41 35 30 32 31 26 21 28 25 21 18 10 7 23 56 93 71 78 97 96 95 80 74 78 90 68 59 56 68 77 90 87 90 75 58
4 3 2 4 3 12 42 41 42 43 43 38 32 31 33 30 27 33 34 28 19 11 8 20 38 88 100 100 91 100 92 79 69 67 74 78 63 46 57 78 96 93 100 88 49
2 2 2 2 2 2 16 40 51 37 48 48 35 30 34 35 32 32 36 32 20 13 8 16 33 67 92 98 98 96 98 98 87 82 70 73 80 46 73 96 87 91 80 98 63
1 2 2 2 2 2 4 29 21 41 54 73 43 35 31 31 32 32 37 28 21 10 8 10 31 53 99 98 99 96 92 97 97 99 88 95 77 50 85 98 95 99 97 93 76
2 3 3 4 4 4 4 5 6 58 57 52 49 41 33 30 33 40 42 38 28 12 7 7 28 47 93 98 97 100 92 100 98 98 86 94 76 94 98 97 95 93 95 93 65
8 8 9 10 8 8 5 3 6 62 59 48 49 46 33 65 37 51 51 38 32 22 18 14 21 39 94 100 96 100 99 98 98 97 92 96 96 99 89 99 100 97 94 92 81
21 13 23 19 11 10 6 4 9 56 54 48 45 39 33 35 36 50 50 57 43 35 23 25 14 44 68 93 100 100 99 97 98 98 97 96 97 96 100 100 97 100 85 74 75
25 21 36 22 22 12 8 7 9 53 41 50 47 35 30 26 35 42 26 34 38 52 27 28 25 51 62 97 100 98 100 96 96 97 95 100 100 97 98 99 86 100 98 53 48
29 27 44 38 27 39 23 10 9 32 42 47 45 35 29 26 30 38 24 28 26 21 15 24 16 13 46 83 99 100 100 99 99 99 97 96 98 100 98 98 97 100 95 87 80
21 20 37 41 36 92 100 46 10 16 33 41 43 36 26 30 32 39 25 42 24 28 16 10 7 6 14 43 97 99 99 100 100 98 99 92 98 98 97 98 97 100 95 100 100
18 20 37 47 46 65 100 85 98 28 21 28 37 27 22 25 24 30 22 17 19 25 25 9 6 5 5 10 62 100 98 99 99 100 97 100 96 97 98 97 98 97 92 91 87
17 21 44 62 83 73 71 66 100 100 100 31 23 24 22 36 37 16 23 19 18 24 25 11 6 8 47 66 41 83 99 98 98 99 98 100 96 98 96 99 94 99 95 99 96
14 36 73 61 98 100 99 80 75 100 100 100 51 30 28 39 17 14 14 10 8 7 6 8 5 12 48 81 52 55 100 100 98 100 99 100 97 98 99 96 93 96 96 87 100

GFSSW_500_rhum_075.txt.gz
RH
48 55 59 59 63 66 56 61 62 60 68 60 53 47 43 44 46 43 45 40 39 37 32 24 18 14 8 5 5 4 3 3 3 3 6 21 18 17 16 15 16 16 45 37 32
54 64 59 66 65 60 64 61 72 65 59 61 60 60 51 50 48 45 48 48 43 40 41 40 18 9 6 4 4 4 5 8 4 3 4 15 20 28 18 22 27 31 25 32 32
59 69 68 66 73 73 62 59 58 67 65 58 55 71 64 56 53 50 45 46 46 42 40 35 30 8 6 12 17 18 18 4 3 4 4 10 19 22 26 30 54 58 26 28 38
60 77 80 73 75 88 84 74 67 63 73 66 54 60 60 56 54 45 44 41 41 40 36 29 26 24 20 11 6 10 4 3 3 3 4 8 24 22 37 38 73 35 28 30 43
70 86 87 82 81 80 88 91 87 85 85 82 70 58 55 55 52 38 47 46 43 28 22 16 15 22 25 10 5 5 3 3 3 3 4 12 12 30 45 71 71 42 28 37 47
77 86 89 89 86 88 96 94 98 94 93 95 88 71 73 62 49 46 50 44 34 23 13 11 11 11 9 6 4 4 3 3 3 2 5 14 13 28 30 46 43 37 31 30 54
77 85 92 91 89 92 98 97 96 92 96 91 77 71 64 64 54 50 45 36 29 21 14 13 12 9 7 7 5 4 4 3 3 3 4 27 16 18 26 40 30 37 26 30 58
89 92 93 89 85 91 96 97 96 90 93 96 76 62 64 57 55 50 42 28 19 16 14 13 11 9 8 7 6 5 4 3 4 5 10 43 13 33 38 30 24 52 41 50 67
85 84 93 94 92 93 94 100 92 95 96 95 94 86 72 62 56 46 37 26 19 17 15 14 12 11 10 9 7 6 4 3 4 9 15 59 23 37 45 28 22 34 49 77 75
86 93 97 95 90 89 89 100 95 94 97 96 96 94 73 62 47 38 30 25 21 18 17 16 15 12 10 9 8 6 4 4 4 19 40 55 25 26 51 31 24 24 54 66 74
94 93 99 95 90 87 92 98 95 89 90 92 93 97 92 63 45 33 27 24 23 22 18 17 15 13 10 9 7 5 4 5 7 33 81 65 47 35 69 42 24 29 34 50 76
100 96 100 93 89 85 92 94 94 82 72 86 94 82 74 93 74 35 37 28 25 22 20 19 17 14 11 10 9 7 6 6 21 59 70 72 39 42 64 34 27 28 37 66 84
76 72 70 81 73 55 44 29 32 38 47 89 88 81 89 82 65 37 45 32 27 24 22 18 17 15 13 12 10 8 7 13 51 78 72 53 49 60 52 37 37 40 44 91 89
22 16 11 6 18 25 14 10 7 9 26 34 70 85 77 86 84 56 38 33 28 26 23 19 19 17 15 14 11 8 10 21 55 68 54 62 34 55 40 50 46 52 61 75 95
13 6 8 6 2 4 3 3 3 3 18 24 27 43 55 62 59 44 37 34 31 30 25 23 21 18 16 15 12 10 12 45 66 73 55 78 59 57 40 45 56 73 71 68 65
3 2 3 3 4 6 3 3 2 3 6 14 20 28 37 48 57 56 39 38 35 30 26 24 20 19 16 14 13 12 12 67 90 98 64 71 79 44 51 53 65 83 84 76 71
2 2 3 2 2 2 2 2 2 2 6 9 11 15 26 37 39 40 41 39 34 30 28 26 24 21 17 14 14 14 22 75 76 88 57 80 84 51 70 65 69 91 98 94 89
3 3 3 3 3 3 3 2 2 2 2 4 7 15 29 48 49 47 40 38 37 34 32 29 26 23 20 17 15 15 19 72 74 61 62 92 77 58 76 99 98 100 97 93 86
3 3 3 3 5 5 5 3 3 4 4 4 50 26 41 60 38 43 48 43 37 33 34 33 31 24 20 16 15 26 46 99 100 83 75 91 94 74 88 96 96 90 90 88 91
4 4 5 8 7 6 5 6 6 7 7 7 70 90 92 82 72 59 51 38 35 34 33 35 34 28 19 15 19 31 62 89 100 94 90 99 99 66 75 90 78 68 68 88 98
4 8 9 8 5 6 11 18 18 17 12 9 24 90 100 100 100 70 45 39 34 33 34 38 37 35 26 17 21 46 70 97 98 94 100 99 92 71 70 62 75 67 76 91 100
8 12 8 5 7 28 30 29 24 19 22 11 16 85 100 100 100 94 64 83 97 53 46 48 40 39 32 21 28 52 59 100 100 98 100 84 97 78 80 78 67 64 74 97 96
11 8 6 10 28 48 36 29 26 26 22 15 11 61 100 100 100 100 88 86 100 100 92 64 49 44 39 31 32 79 95 100 96 97 95 93 99 79 86 94 89 76 83 98 100
13 7 26 38 41 42 38 26 23 25 25 19 11 27 92 100 100 100 89 91 66 89 100 74 69 57 52 38 39 59 94 100 100 99 96 86 99 100 98 92 100 85 90 83 78
6 22 36 33 28 26 24 22 26 28 41 32 15 14 58 98 100 100 100 100 100 92 96 85 44 35 32 36 29 30 83 96 100 100 98 98 97 98 98 98 99 100 97 92 74
22 34 34 43 56 38 22 23 24 49 70 81 22 13 43 100 100 100 100 100 100 100 98 58 39 32 26 20 19 11 18 77 93 99 90 97 88 97 98 99 98 98 100 98 90
37 56 85 80 68 57 28 19 19 24 100 91 54 16 17 54 97 98 100 98 90 85 87 29 29 38 29 23 18 10 8 15 84 94 98 77 86 92 98 98 97 98 99 99 100

GFSSW_500_rhum_078.txt.gz
RH
38 40 42 42 42 43 45 54 56 51 55 54 54 59 63 66 62 56 50 48 47 49 47 47 45 42 40 35 21 15 12 10 5 3 4 17 6 14 5 4 6 6 9 16 20
39 44 39 38 35 34 39 48 60 62 61 61 56 59 60 61 62 64 65 62 55 55 51 49 48 45 41 34 29 17 13 9 5 8 8 7 7 13 5 4 6 8 13 17 15
33 44 48 42 36 32 38 46 56 67 68 62 63 60 67 63 67 62 66 66 63 56 54 50 47 46 44 40 35 19 12 8 13 13 12 6 6 13 4 4 10 12 11 11 16
42 41 43 42 37 36 41 54 63 74 71 70 74 68 73 65 76 62 60 61 59 54 49 45 42 40 40 36 21 29 16 13 12 6 7 4 3 5 4 5 14 10 11 17 18
45 46 44 42 40 36 44 59 74 81 78 74 76 78 80 85 95 61 68 66 61 55 48 44 45 48 45 30 20 24 20 17 10 5 4 3 3 4 4 7 18 12 13 18 18
47 44 42 39 38 40 48 60 71 77 86 87 82 85 83 97 90 85 79 72 64 58 52 47 44 44 40 22 13 13 17 15 7 4 4 4 3 4 11 18 15 20 20 21 22
48 47 44 40 38 41 53 69 71 76 84 81 80 89 88 100 89 96 96 78 68 55 44 42 38 31 28 16 13 11 9 7 6 6 5 5 5 6 8 27 22 30 31 30 29
53 49 45 44 39 57 72 80 75 81 82 80 84 82 96 97 96 94 96 96 75 38 30 33 28 24 19 14 12 10 8 7 7 7 6 5 8 10 18 24 28 32 29 27 25
59 55 46 49 58 72 78 84 82 82 88 83 88 95 99 97 97 96 89 85 97 61 25 27 24 20 15 13 12 10 9 9 8 7 6 5 5 5 12 15 27 38 35 33 29
68 61 58 66 68 68 74 71 79 83 89 93 93 96 97 95 97 96 97 74 72 61 25 23 22 19 16 15 15 14 13 11 9 7 6 5 4 4 11 27 34 42 39 34 28
66 67 70 66 66 65 78 99 79 74 78 84 81 82 95 100 96 95 98 96 74 62 28 25 22 20 19 17 16 13 11 11 9 8 8 6 5 4 7 37 33 41 42 28 24
74 75 78 77 77 77 86 99 94 75 68 75 73 70 100 91 84 100 98 94 72 30 23 23 23 21 21 19 16 14 12 12 10 9 9 7 4 5 14 43 42 50 49 30 24
84 80 72 67 64 60 54 47 46 52 45 36 59 57 69 96 89 92 93 98 72 32 25 26 24 23 22 19 15 13 14 12 12 10 8 6 4 8 34 54 46 64 55 25 29
64 64 62 54 46 31 20 28 22 17 27 24 22 28 43 53 90 99 92 77 92 91 89 78 30 25 22 19 17 16 15 14 12 10 7 18 7 26 48 56 57 69 54 28 30
39 34 20 11 12 7 5 5 6 6 19 17 16 18 24 35 49 79 97 90 98 82 68 42 28 26 23 22 19 16 15 13 10 8 6 21 60 30 65 74 60 60 32 32 44
8 5 4 4 3 3 3 3 3 3 3 5 8 10 18 27 37 47 70 94 94 67 49 32 31 28 26 22 20 18 15 12 10 8 6 50 68 35 78 86 53 51 50 62 74
4 3 3 3 3 3 3 3 3 4 4 4 4 6 7 16 30 44 55 65 85 57 41 39 33 29 26 24 22 18 14 13 11 8 18 52 64 63 84 94 44 65 54 88 95
4 4 4 4 3 3 3 3 3 3 3 3 2 3 5 14 19 37 45 49 48 56 47 37 33 30 29 26 23 19 17 15 14 17 36 53 66 85 93 84 48 45 61 92 89
4 4 4 4 4 3 3 3 5 4 4 4 4 3 5 9 22 32 38 43 52 47 40 36 35 33 30 26 23 20 17 21 25 25 60 74 71 72 91 65 53 45 58 82 86
5 4 5 4 4 4 5 6 5 5 4 5 4 4 4 14 38 32 42 46 50 47 41 41 40 35 32 29 24 18 20 30 38 59 88 88 83 72 72 66 52 56 91 90 94
6 5 5 5 6 7 7 6 5 6 8 8 8 5 5 57 100 78 79 58 56 56 50 46 40 37 35 36 28 22 30 38 51 73 93 92 84 78 71 68 61 82 97 89 99
6 5 6 7 9 9 7 6 8 26 29 18 17 15 8 79 100 100 65 78 78 64 53 43 39 38 45 39 39 27 26 52 70 78 100 96 78 86 86 82 67 83 95 92 95
6 9 8 12 12 8 8 14 36 46 37 28 24 18 11 53 96 100 100 66 76 81 55 53 42 45 48 59 43 36 70 91 88 93 97 90 79 90 99 97 76 80 89 86 90
10 14 15 12 8 11 28 39 45 47 36 25 22 20 17 15 97 100 100 97 85 80 100 98 73 97 80 68 48 44 60 96 99 100 97 95 93 96 98 97 90 79 76 88 80
15 16 10 8 14 29 33 33 30 30 26 24 22 20 19 12 56 97 100 100 76 87 100 100 100 100 100 82 65 51 49 66 98 85 100 100 86 98 99 99 99 90 86 83 76
17 8 10 26 35 37 48 55 39 25 23 22 20 21 18 11 23 100 100 100 100 100 100 96 96 100 100 55 36 37 38 46 87 91 88 100 78 95 98 95 98 100 92 84 84
8 16 34 55 76 78 68 58 55 44 28 29 21 32 39 18 12 96 100 100 100 99 99 100 95 83 67 50 36 34 21 20 17 54 87 92 82 95 96 98 97 99 99 99 79